{"data":{"norad_id":54588,"intl_designator":"2022-164A","name":"JIAOTONG VDES","alt_names":[],"object_type":"PAYLOAD","status":"ACTIVE","operator":null,"country":"PRC","launch_date":"2022-12-07","launch_site_code":"JSC","launch_vehicle":null,"mission":null,"orbit_class":"UNKNOWN","rcs_meters":null,"size_class":null,"mass_kg":null,"dimensions":null,"purposes":[],"wikipedia_slug":null,"has_3d_model":false,"image_url":null,"decayed_at":null,"tle_current":{"epoch":"2026-09-21T23:01:40.414656Z","epoch_age_seconds":36144,"freshness":"FRESH","line1":"1 54588U 22164A   26264.95949554  .00000225  00000+0  74809-4 0  9995","line2":"2 54588  98.2418 281.4593 0010625  39.1963 320.9997 14.46124798200064","mean_motion":14.46124798,"eccentricity":0.0010625,"inclination_deg":98.2418,"raan_deg":281.4593,"arg_perigee_deg":39.1963,"mean_anomaly_deg":320.9997,"bstar":7.4809e-5,"rev_number":20006,"period_min":99.576468226776,"perigee_km":730.77234235005,"apogee_km":745.8948423588,"semimajor_km":7116.4705923544,"source":"CELESTRAK","updated_at":"2026-09-22T09:00:25.146726Z"}}}